Terminal Aerodrome Forecast
Issued by NWS Cleveland, OH

Home | Current Version | Previous Version | Graphics & Text | Print | Product List | Glossary On
Versions: 1 2 3 4 5 6 7 8 9 10 11 12 13 14 15 16 17 18 19 20
000
FTUS41 KCLE 301736
TAFMFD
TAF
KMFD 301736Z 3018/0118 22008KT P6SM -SHRA BKN025 OVC035
      TEMPO 3019/3023 4SM -TSRA OVC015CB
     FM302300 22007KT P6SM VCTS OVC100CB
     FM010600 25008KT 4SM BR BKN250
     FM010700 25006KT 4SM BR OVC007
     FM011500 28008KT P6SM OVC015=

USA.gov is the U.S. government's official web portal to all federal, state and local government web resources and services.